| time (UTC) | temp C | wind direction | speed KPH | gust KPH | rain 1hr cm | rain 24hr cm | rain mn cm | humidity % | barometer mb |
| 20260831214634 | 27 | 35 | 11.3 | 14.5 | 0.00 | 0.00 | 0.00 | 1 | 1012.4 |
| 20260831213630 | 26 | 52 | 6.4 | 9.7 | 0.00 | 0.00 | 0.00 | 1 | 1012.8 |
| 20260831212627 | 26 | 40 | 8.0 | 14.5 | 0.00 | 0.00 | 0.00 | 1 | 1012.8 |
| 20260831211704 | 26 | 55 | 9.7 | 12.9 | 0.00 | 0.00 | 0.00 | 1 | 1013.1 |
| 20260831210620 | 25 | 50 | 8.0 | 9.7 | 0.00 | 0.00 | 0.00 | 1 | 1013.3 |
| 20260831205636 | 25 | 36 | 9.7 | 14.5 | 0.00 | 0.00 | 0.00 | 1 | 1013.3 |
| 20260831204633 | 25 | 39 | 6.4 | 8.0 | 0.00 | 0.00 | 0.00 | 1 | 1013.6 |
| 20260831203630 | 25 | 41 | 6.4 | 12.9 | 0.00 | 0.00 | 0.00 | 1 | 1013.8 |
| 20260831202626 | 24 | 39 | 6.4 | 8.0 | 0.00 | 0.00 | 0.00 | 1 | 1013.9 |
| 20260831201623 | 24 | 29 | 4.8 | 6.4 | 0.00 | 0.00 | 0.00 | 1 | 1014.1 |
| 20260831200620 | 24 | 58 | 8.0 | 12.9 | 0.00 | 0.00 | 0.00 | 1 | 1014.3 |
| 20260831195616 | 23 | 60 | 11.3 | 14.5 | 0.00 | 0.00 | 0.00 | 1 | 1014.4 |
| 20260831194632 | 23 | 38 | 8.0 | 14.5 | 0.00 | 0.00 | 0.00 | 1 | 1014.7 |
| 20260831193629 | 23 | 33 | 9.7 | 14.5 | 0.00 | 0.00 | 0.00 | 1 | 1014.7 |
| 20260831192625 | 23 | 33 | 8.0 | 12.9 | 0.00 | 0.00 | 0.00 | 1 | 1015.0 |
| 20260831191643 | 22 | 63 | 8.0 | 12.9 | 0.00 | 0.00 | 0.00 | 1 | 1015.2 |
| 20260831190619 | 22 | 18 | 9.7 | 11.3 | 0.00 | 0.00 | 0.00 | 1 | 1015.3 |
| 20260831185636 | 22 | 27 | 9.7 | 11.3 | 0.00 | 0.00 | 0.00 | 1 | 1015.4 |
| 20260831184632 | 21 | 28 | 8.0 | 11.3 | 0.00 | 0.00 | 0.00 | 1 | 1015.7 |
| 20260831183629 | 21 | 42 | 4.8 | 9.7 | 0.00 | 0.00 | 0.00 | 1 | 1015.7 |
| 20260831182625 | 21 | 32 | 8.0 | 9.7 | 0.00 | 0.00 | 0.00 | 1 | 1015.9 |
| 20260831181622 | 21 | 52 | 8.0 | 12.9 | 0.00 | 0.00 | 0.00 | 1 | 1016.0 |
| 20260831180639 | 20 | 25 | 4.8 | 6.4 | 0.00 | 0.00 | 0.00 | 1 | 1016.1 |
| 20260831175635 | 20 | 12 | 8.0 | 11.3 | 0.00 | 0.00 | 0.00 | 1 | 1016.3 |
| 20260831174632 | 20 | 24 | 8.0 | 9.7 | 0.00 | 0.00 | 0.00 | 1 | 1016.3 |
| 20260831173629 | 20 | 43 | 6.4 | 9.7 | 0.00 | 0.00 | 0.00 | 1 | 1016.3 |
| 20260831172645 | 19 | 340 | 6.4 | 8.0 | 0.00 | 0.00 | 0.00 | 1 | 1016.3 |
| 20260831171622 | 19 | 340 | 3.2 | 4.8 | 0.00 | 0.00 | 0.00 | 1 | 1016.4 |
| 20260831170618 | 19 | 51 | 1.6 | 3.2 | 0.00 | 0.00 | 0.00 | 1 | 1016.8 |
| 20260831165635 | 18 | 0.0 | 1.6 | 0.00 | 0.00 | 0.00 | 1 | 1016.5 | |
| 20260831164631 | 18 | 36 | 4.8 | 6.4 | 0.00 | 0.00 | 0.00 | 1 | 1016.9 |
| 20260831163628 | 18 | 86 | 1.6 | 4.8 | 0.00 | 0.00 | 0.00 | 1 | 1016.8 |
| 20260831162625 | 17 | 22 | 3.2 | 6.4 | 0.00 | 0.00 | 0.00 | 1 | 1016.9 |
| 20260831161621 | 17 | 66 | 4.8 | 6.4 | 0.00 | 0.00 | 0.00 | 1 | 1016.9 |
| 20260831160618 | 17 | 40 | 4.8 | 6.4 | 0.00 | 0.00 | 0.00 | 1 | 1017.0 |
| 20260831155634 | 17 | 35 | 6.4 | 9.7 | 0.00 | 0.00 | 0.00 | 1 | 1017.0 |
| 20260831154633 | 16 | 338 | 3.2 | 8.0 | 0.00 | 0.00 | 0.00 | 1 | 1017.0 |
| 20260831153628 | 16 | 16 | 3.2 | 4.8 | 0.00 | 0.00 | 0.00 | 1 | 1017.1 |
| 20260831152627 | 15 | 328 | 1.6 | 3.2 | 0.00 | 0.00 | 0.00 | 1 | 1017.0 |
| 20260831151620 | 15 | 322 | 3.2 | 4.8 | 0.00 | 0.00 | 0.00 | 1 | 1017.0 |
| 20260831150617 | 15 | 335 | 3.2 | 4.8 | 0.00 | 0.00 | 0.00 | 1 | 1016.9 |
| 20260831145654 | 15 | 340 | 4.8 | 6.4 | 0.00 | 0.00 | 0.00 | 1 | 1017.0 |
| 20260831144631 | 14 | 353 | 4.8 | 6.4 | 0.00 | 0.00 | 0.00 | 1 | 1016.9 |
| 20260831143649 | 14 | 337 | 4.8 | 6.4 | 0.00 | 0.00 | 0.00 | 1 | 1016.7 |
| 20260831142625 | 15 | 320 | 0.0 | 3.2 | 0.00 | 0.00 | 0.00 | 1 | 1016.6 |
| 20260831141621 | 13 | 0.0 | 3.2 | 0.00 | 0.00 | 0.00 | 1 | 1016.5 | |
| 20260831140621 | 13 | 279 | 1.6 | 3.2 | 0.00 | 0.00 | 0.00 | 1 | 1016.6 |
| 20260831135635 | 12 | 264 | 1.6 | 4.8 | 0.00 | 0.00 | 0.00 | 1 | 1016.5 |
| 20260831134631 | 12 | 0.0 | 1.6 | 0.00 | 0.00 | 0.00 | 1 | 1016.6 | |
| 20260831133629 | 12 | 251 | 6.4 | 8.0 | 0.00 | 0.00 | 0.00 | 1 | 1016.6 |
| 20260831132645 | 11 | 207 | 3.2 | 6.4 | 0.00 | 0.00 | 0.00 | 1 | 1016.6 |
| 20260831131621 | 11 | 221 | 1.6 | 3.2 | 0.00 | 0.00 | 0.00 | 1 | 1016.5 |
| 20260831130618 | 12 | 180 | 3.2 | 4.8 | 0.00 | 0.00 | 0.00 | 1 | 1016.3 |
| 20260831125636 | 12 | 97 | 1.6 | 3.2 | 0.00 | 0.00 | 0.00 | 1 | 1016.3 |
| 20260831124631 | 12 | 295 | 1.6 | 4.8 | 0.00 | 0.00 | 0.00 | 1 | 1016.4 |
| 20260831123628 | 12 | 0.0 | 1.6 | 0.00 | 0.00 | 0.00 | 1 | 1016.4 | |
| 20260831122625 | 12 | 276 | 0.0 | 1.6 | 0.00 | 0.00 | 0.00 | 1 | 1016.3 |
| 20260831121641 | 12 | 250 | 1.6 | 3.2 | 0.00 | 0.00 | 0.00 | 1 | 1016.3 |
| 20260831120619 | 12 | 277 | 3.2 | 3.2 | 0.00 | 0.00 | 0.00 | 1 | 1016.3 |
| 20260831115634 | 12 | 218 | 3.2 | 4.8 | 0.00 | 0.00 | 0.00 | 1 | 1016.3 |
| 20260831114652 | 12 | 252 | 1.6 | 3.2 | 0.00 | 0.00 | 0.00 | 1 | 1016.2 |
| 20260831113629 | 13 | 213 | 3.2 | 4.8 | 0.00 | 0.00 | 0.00 | 1 | 1016.4 |
| 20260831112625 | 13 | 238 | 3.2 | 3.2 | 0.00 | 0.00 | 0.00 | 1 | 1016.4 |
| 20260831111622 | 12 | 227 | 1.6 | 3.2 | 0.00 | 0.00 | 0.00 | 1 | 1016.3 |
| 20260831110619 | 12 | 270 | 1.6 | 1.6 | 0.00 | 0.00 | 0.00 | 1 | 1016.4 |
| 20260831105620 | 13 | 246 | 1.6 | 3.2 | 0.00 | 0.00 | 0.00 | 1 | 1016.4 |
| 20260831104617 | 13 | 238 | 1.6 | 3.2 | 0.00 | 0.00 | 0.00 | 1 | 1016.2 |
| 20260831103633 | 13 | 240 | 3.2 | 3.2 | 0.00 | 0.00 | 0.00 | 1 | 1016.3 |
| 20260831102630 | 13 | 217 | 4.8 | 4.8 | 0.00 | 0.00 | 0.00 | 1 | 1016.3 |
| 20260831101627 | 13 | 261 | 3.2 | 3.2 | 0.00 | 0.00 | 0.00 | 1 | 1016.2 |
| 20260831100623 | 13 | 233 | 3.2 | 3.2 | 0.00 | 0.00 | 0.00 | 1 | 1016.3 |
| 20260831095620 | 13 | 226 | 1.6 | 3.2 | 0.00 | 0.00 | 0.00 | 1 | 1016.6 |
| 20260831094656 | 13 | 290 | 1.6 | 3.2 | 0.00 | 0.00 | 0.00 | 1 | 1016.6 |
| 20260831093633 | 13 | 276 | 1.6 | 3.2 | 0.00 | 0.00 | 0.00 | 1 | 1016.7 |
| 20260831092629 | 13 | 283 | 0.0 | 1.6 | 0.00 | 0.00 | 0.00 | 1 | 1016.8 |
| 20260831091626 | 13 | 265 | 1.6 | 3.2 | 0.00 | 0.00 | 0.00 | 1 | 1016.7 |
| 20260831090622 | 14 | 282 | 1.6 | 3.2 | 0.00 | 0.00 | 0.00 | 1 | 1016.7 |
| 20260831085620 | 14 | 268 | 1.6 | 3.2 | 0.00 | 0.00 | 0.00 | 1 | 1016.8 |
| 20260831084636 | 14 | 0.0 | 1.6 | 0.00 | 0.00 | 0.00 | 1 | 1016.9 | |
| 20260831083633 | 15 | 265 | 1.6 | 3.2 | 0.00 | 0.00 | 0.00 | 1 | 1016.9 |
| 20260831082630 | 15 | 264 | 1.6 | 3.2 | 0.00 | 0.00 | 0.00 | 1 | 1016.7 |
| 20260831081646 | 15 | 233 | 0.0 | 1.6 | 0.00 | 0.00 | 0.00 | 1 | 1016.9 |
| 20260831080623 | 15 | 210 | 0.0 | 1.6 | 0.00 | 0.00 | 0.00 | 1 | 1016.8 |
| 20260831075619 | 16 | 267 | 1.6 | 1.6 | 0.00 | 0.00 | 0.00 | 1 | 1016.8 |
| 20260831074616 | 15 | 274 | 1.6 | 3.2 | 0.00 | 0.00 | 0.00 | 1 | 1016.8 |
| 20260831073633 | 16 | 263 | 1.6 | 3.2 | 0.00 | 0.00 | 0.00 | 1 | 1016.9 |
| 20260831072629 | 15 | 270 | 1.6 | 3.2 | 0.00 | 0.00 | 0.00 | 1 | 1016.8 |
| 20260831071626 | 15 | 217 | 1.6 | 3.2 | 0.00 | 0.00 | 0.00 | 1 | 1016.9 |
| 20260831070702 | 15 | 222 | 3.2 | 3.2 | 0.00 | 0.00 | 0.00 | 1 | 1016.6 |
| 20260831065621 | 16 | 249 | 3.2 | 3.2 | 0.00 | 0.00 | 0.00 | 1 | 1016.8 |
| 20260831064636 | 16 | 245 | 3.2 | 3.2 | 0.00 | 0.00 | 0.00 | 1 | 1016.9 |
| 20260831063632 | 16 | 227 | 3.2 | 3.2 | 0.00 | 0.00 | 0.00 | 1 | 1017.0 |
| 20260831062629 | 16 | 224 | 0.0 | 3.2 | 0.00 | 0.00 | 0.00 | 1 | 1016.9 |
| 20260831061626 | 16 | 0.0 | 0.0 | 0.00 | 0.00 | 0.00 | 1 | 1016.9 | |
| 20260831060622 | 17 | 243 | 3.2 | 3.2 | 0.00 | 0.00 | 0.00 | 1 | 1017.0 |
| 20260831055639 | 17 | 238 | 3.2 | 3.2 | 0.00 | 0.00 | 0.00 | 1 | 1016.9 |
| 20260831054615 | 16 | 249 | 3.2 | 3.2 | 0.00 | 0.00 | 0.00 | 1 | 1016.9 |
| 20260831053632 | 17 | 225 | 1.6 | 3.2 | 0.00 | 0.00 | 0.00 | 1 | 1017.0 |
| 20260831052629 | 17 | 234 | 3.2 | 3.2 | 0.00 | 0.00 | 0.00 | 1 | 1017.0 |
| 20260831051625 | 17 | 239 | 3.2 | 3.2 | 0.00 | 0.00 | 0.00 | 1 | 1017.1 |
| 20260831050622 | 18 | 272 | 0.0 | 1.6 | 0.00 | 0.00 | 0.00 | 1 | 1017.0 |
| 20260831045619 | 18 | 278 | 1.6 | 3.2 | 0.00 | 0.00 | 0.00 | 1 | 1017.0 |
| 20260831044636 | 18 | 261 | 1.6 | 3.2 | 0.00 | 0.00 | 0.00 | 1 | 1017.2 |
| 20260831043633 | 18 | 261 | 1.6 | 3.2 | 0.00 | 0.00 | 0.00 | 1 | 1017.0 |
| 20260831042629 | 18 | 252 | 3.2 | 3.2 | 0.00 | 0.00 | 0.00 | 1 | 1017.0 |
| 20260831041626 | 18 | 234 | 3.2 | 3.2 | 0.00 | 0.00 | 0.00 | 1 | 1017.1 |
| 20260831040623 | 18 | 230 | 1.6 | 3.2 | 0.00 | 0.00 | 0.00 | 1 | 1017.1 |
| 20260831035619 | 19 | 0.0 | 1.6 | 0.00 | 0.00 | 0.00 | 1 | 1017.1 | |
| 20260831034616 | 19 | 0.0 | 0.0 | 0.00 | 0.00 | 0.00 | 1 | 1017.1 | |
| 20260831033633 | 20 | 0.0 | 0.0 | 0.00 | 0.00 | 0.00 | 1 | 1017.1 | |
| 20260831032630 | 20 | 162 | 3.2 | 3.2 | 0.00 | 0.00 | 0.00 | 1 | 1016.9 |
| 20260831031626 | 21 | 174 | 3.2 | 3.2 | 0.00 | 0.00 | 0.00 | 1 | 1017.0 |
| 20260831030623 | 21 | 172 | 1.6 | 3.2 | 0.00 | 0.00 | 0.00 | 1 | 1016.8 |
| 20260831025620 | 21 | 0.0 | 0.0 | 0.00 | 0.00 | 0.00 | 1 | 1016.8 | |
| 20260831024616 | 21 | 0.0 | 1.6 | 0.00 | 0.00 | 0.00 | 1 | 1016.6 | |
| 20260831023634 | 22 | 110 | 1.6 | 3.2 | 0.00 | 0.00 | 0.00 | 1 | 1016.6 |
| 20260831022630 | 22 | 155 | 1.6 | 3.2 | 0.00 | 0.00 | 0.00 | 1 | 1016.5 |
| 20260831021630 | 23 | 148 | 0.0 | 3.2 | 0.00 | 0.00 | 0.00 | 1 | 1016.6 |
| 20260831020624 | 23 | 61 | 1.6 | 4.8 | 0.00 | 0.00 | 0.00 | 1 | 1016.6 |
| 20260831015621 | 24 | 6 | 3.2 | 3.2 | 0.00 | 0.00 | 0.00 | 1 | 1016.4 |
| 20260831014617 | 24 | 46 | 3.2 | 4.8 | 0.00 | 0.00 | 0.00 | 1 | 1016.5 |
| 20260831013634 | 24 | 71 | 4.8 | 8.0 | 0.00 | 0.00 | 0.00 | 1 | 1016.5 |
| 20260831012651 | 26 | 218 | 1.6 | 3.2 | 0.00 | 0.00 | 0.00 | 1 | 1016.4 |
| 20260831011648 | 25 | 325 | 4.8 | 4.8 | 0.00 | 0.00 | 0.00 | 1 | 1016.5 |
| 20260831010625 | 25 | 1 | 8.0 | 9.7 | 0.00 | 0.00 | 0.00 | 1 | 1016.5 |
| 20260831005621 | 26 | 0.0 | 0.0 | 0.00 | 0.00 | 0.00 | 1 | 1016.6 | |
| 20260831004618 | 25 | 350 | 0.0 | 3.2 | 0.00 | 0.00 | 0.00 | 1 | 1016.6 |
| 20260831003635 | 25 | 172 | 3.2 | 3.2 | 0.00 | 0.00 | 0.00 | 1 | 1016.7 |
| 20260831002631 | 26 | 265 | 0.0 | 3.2 | 0.00 | 0.00 | 0.00 | 1 | 1016.8 |
| 20260831001648 | 25 | 219 | 1.6 | 4.8 | 0.00 | 0.00 | 0.00 | 1 | 1016.9 |
| 20260831000625 | 25 | 225 | 3.2 | 4.8 | 0.00 | 0.00 | 0.00 | 1 | 1016.8 |
| 20260830235723 | 24 | 180 | 1.6 | 4.8 | 0.00 | 0.00 | 0.00 | 1 | 1016.9 |
| 20260830234618 | 25 | 9 | 1.6 | 3.2 | 0.00 | 0.00 | 0.00 | 1 | 1017.0 |
| 20260830233634 | 25 | 7 | 1.6 | 4.8 | 0.00 | 0.00 | 0.00 | 1 | 1017.3 |
| 20260830232632 | 25 | 227 | 3.2 | 4.8 | 0.00 | 0.00 | 0.00 | 1 | 1017.2 |
| 20260830231628 | 23 | 0.0 | 1.6 | 0.00 | 0.00 | 0.00 | 1 | 1017.3 | |
| 20260830230705 | 23 | 43 | 4.8 | 6.4 | 0.00 | 0.00 | 0.00 | 1 | 1017.3 |
| 20260830225641 | 24 | 272 | 6.4 | 8.0 | 0.00 | 0.00 | 0.00 | 1 | 1017.4 |
| 20260830224618 | 23 | 342 | 1.6 | 3.2 | 0.00 | 0.00 | 0.00 | 1 | 1017.6 |
| 20260830223635 | 23 | 185 | 6.4 | 6.4 | 0.00 | 0.00 | 0.00 | 1 | 1017.7 |
| 20260830222631 | 23 | 6 | 1.6 | 3.2 | 0.00 | 0.00 | 0.00 | 1 | 1018.1 |
| 20260830221628 | 23 | 345 | 1.6 | 3.2 | 0.00 | 0.00 | 0.00 | 1 | 1018.0 |
| 20260830220625 | 22 | 68 | 0.0 | 1.6 | 0.00 | 0.00 | 0.00 | 1 | 1018.4 |
| 20260830215622 | 22 | 110 | 4.8 | 6.4 | 0.00 | 0.00 | 0.00 | 1 | 1018.5 |